Time,TemperatureF,DewpointF,PressureIn,WindDirection,WindDirectionDegrees,WindSpeedMPH,WindSpeedGustMPH,Humidity,HourlyPrecipIn,Conditions,Clouds,dailyrainin,SoftwareType,DateUTC
2013-02-04 00:00:00,44.0,-99.9,30.14,East,90,16.0,18.0,-999,-99.99,,,-99.99,,2013-02-04 08:00:00,
2013-02-04 00:52:00,44.0,-99.9,30.14,East,90,16.0,18.0,-999,-99.99,,,-99.99,,2013-02-04 08:52:00,
2013-02-04 01:00:00,44.0,-99.9,30.12,East,90,16.0,18.0,-999,-99.99,,,-99.99,,2013-02-04 09:00:00,
2013-02-04 01:52:00,44.0,-99.9,30.12,East,90,16.0,18.0,-999,-99.99,,,-99.99,,2013-02-04 09:52:00,
2013-02-04 02:00:00,44.0,-99.9,30.14,East,90,16.0,18.0,-999,-99.99,,,-99.99,,2013-02-04 10:00:00,
2013-02-04 02:52:00,44.0,-99.9,30.14,East,90,16.0,18.0,-999,-99.99,,,-99.99,,2013-02-04 10:52:00,
2013-02-04 03:00:00,44.0,-99.9,30.11,East,90,16.0,18.0,-999,-99.99,,,-99.99,,2013-02-04 11:00:00,
2013-02-04 03:53:00,44.0,-99.9,30.11,East,90,16.0,18.0,-999,-99.99,,,-99.99,,2013-02-04 11:53:00,
2013-02-04 04:00:00,44.0,-99.9,30.11,East,100,16.0,18.0,-999,-99.99,,,-99.99,,2013-02-04 12:00:00,
2013-02-04 04:53:00,44.0,-99.9,30.11,East,100,16.0,18.0,-999,-99.99,,,-99.99,,2013-02-04 12:53:00,
2013-02-04 05:00:00,44.0,-99.9,30.10,East,90,16.0,20.0,-999,-99.99,,,-99.99,,2013-02-04 13:00:00,
2013-02-04 05:52:00,44.0,-99.9,30.10,East,90,16.0,20.0,-999,-99.99,,,-99.99,,2013-02-04 13:52:00,
2013-02-04 06:00:00,44.0,-99.9,30.09,East,90,16.0,20.0,-999,-99.99,,,-99.99,,2013-02-04 14:00:00,
2013-02-04 06:53:00,44.0,-99.9,30.09,East,90,16.0,20.0,-999,-99.99,,,-99.99,,2013-02-04 14:53:00,
2013-02-04 07:00:00,44.0,-99.9,30.08,East,90,18.0,20.0,-999,-99.99,,,-99.99,,2013-02-04 15:00:00,
2013-02-04 07:53:00,44.0,-99.9,30.08,East,90,18.0,20.0,-999,-99.99,,,-99.99,,2013-02-04 15:53:00,
2013-02-04 08:00:00,44.0,-99.9,30.09,East,90,16.0,20.0,-999,-99.99,,,-99.99,,2013-02-04 16:00:00,
2013-02-04 08:52:00,44.0,-99.9,30.09,East,90,16.0,20.0,-999,-99.99,,,-99.99,,2013-02-04 16:52:00,
2013-02-04 09:00:00,44.0,-99.9,30.10,East,90,16.0,20.0,-999,-99.99,,,-99.99,,2013-02-04 17:00:00,
2013-02-04 09:52:00,44.0,-99.9,30.10,East,90,16.0,20.0,-999,-99.99,,,-99.99,,2013-02-04 17:52:00,
2013-02-04 10:00:00,44.0,-99.9,30.10,East,90,18.0,20.0,-999,-99.99,,,-99.99,,2013-02-04 18:00:00,
2013-02-04 10:52:00,44.0,-99.9,30.10,East,90,18.0,20.0,-999,-99.99,,,-99.99,,2013-02-04 18:52:00,
2013-02-04 11:00:00,44.0,-99.9,30.10,East,100,18.0,20.0,-999,-99.99,,,-99.99,,2013-02-04 19:00:00,
2013-02-04 11:52:00,44.0,-99.9,30.10,East,100,18.0,20.0,-999,-99.99,,,-99.99,,2013-02-04 19:52:00,
2013-02-04 12:00:00,44.0,-99.9,30.09,East,100,16.0,18.0,-999,-99.99,,,-99.99,,2013-02-04 20:00:00,
2013-02-04 12:52:00,44.0,-99.9,30.09,East,100,16.0,18.0,-999,-99.99,,,-99.99,,2013-02-04 20:52:00,
2013-02-04 13:00:00,44.0,-99.9,30.07,East,100,16.0,20.0,-999,-99.99,,,-99.99,,2013-02-04 21:00:00,
2013-02-04 13:52:00,44.0,-99.9,30.07,East,100,16.0,20.0,-999,-99.99,,,-99.99,,2013-02-04 21:52:00,
2013-02-04 14:00:00,45.0,-99.9,30.05,East,90,16.0,20.0,-999,-99.99,,,-99.99,,2013-02-04 22:00:00,
2013-02-04 14:52:00,45.0,-99.9,30.05,East,90,16.0,20.0,-999,-99.99,,,-99.99,,2013-02-04 22:52:00,
2013-02-04 15:00:00,45.0,-99.9,30.03,East,90,16.0,18.0,-999,-99.99,,,-99.99,,2013-02-04 23:00:00,
2013-02-04 15:53:00,45.0,-99.9,30.03,East,90,16.0,18.0,-999,-99.99,,,-99.99,,2013-02-04 23:53:00,
2013-02-04 16:00:00,45.0,-99.9,30.02,East,90,16.0,18.0,-999,-99.99,,,-99.99,,2013-02-05 00:00:00,
2013-02-04 16:52:00,45.0,-99.9,30.02,East,90,16.0,18.0,-999,-99.99,,,-99.99,,2013-02-05 00:52:00,
2013-02-04 17:00:00,45.0,-99.9,30.00,East,100,13.0,16.0,-999,-99.99,,,-99.99,,2013-02-05 01:00:00,
2013-02-04 17:52:00,45.0,-99.9,30.00,East,100,13.0,16.0,-999,-99.99,,,-99.99,,2013-02-05 01:52:00,
2013-02-04 18:00:00,45.0,-99.9,29.97,East,100,13.0,16.0,-999,-99.99,,,-99.99,,2013-02-05 02:00:00,
2013-02-04 18:52:00,45.0,-99.9,29.97,East,100,13.0,16.0,-999,-99.99,,,-99.99,,2013-02-05 02:52:00,
2013-02-04 19:00:00,45.0,-99.9,29.96,ESE,110,11.0,13.0,-999,-99.99,,,-99.99,,2013-02-05 03:00:00,
2013-02-04 19:52:00,45.0,-99.9,29.96,ESE,110,11.0,13.0,-999,-99.99,,,-99.99,,2013-02-05 03:52:00,
2013-02-04 20:00:00,45.0,-99.9,29.93,East,100,11.0,13.0,-999,-99.99,,,-99.99,,2013-02-05 04:00:00,
2013-02-04 20:52:00,45.0,-99.9,29.93,East,100,11.0,13.0,-999,-99.99,,,-99.99,,2013-02-05 04:52:00,
2013-02-04 21:00:00,44.0,-99.9,29.88,East,100,13.0,18.0,-999,-99.99,,,-99.99,,2013-02-05 05:00:00,
2013-02-04 21:52:00,44.0,-99.9,29.88,East,100,13.0,18.0,-999,-99.99,,,-99.99,,2013-02-05 05:52:00,
2013-02-04 22:00:00,44.0,-99.9,29.86,ESE,110,11.0,13.0,-999,-99.99,,,-99.99,,2013-02-05 06:00:00,
2013-02-04 22:52:00,44.0,-99.9,29.86,ESE,110,11.0,13.0,-999,-99.99,,,-99.99,,2013-02-05 06:52:00,
2013-02-04 23:00:00,44.0,-99.9,29.84,SE,140,13.0,16.0,-999,-99.99,,,-99.99,,2013-02-05 07:00:00,
2013-02-04 23:52:00,44.0,-99.9,29.84,SE,140,13.0,16.0,-999,-99.99,,,-99.99,,2013-02-05 07:52:00,